When you browse on this site, cookies collect data to enhance your experience and personalize the content and advertising you see.
Visit our Privacy Policy to learn more. By continuing to use the site, you agree to this use of cookies and data.
  • In Hungary
  • List of Countries
  • For 7 days
  • Water Temperature
  • Weather Map
  • News
  • Weather Widgets
  • user-avatar
    Login

    Hourly Weather Lipa

    Today, 17 September, Tuesday

    Time Temperature Precipitation Wind Pressure Humidity
    00:00 +12°C° 0 mm 2 mps 747 mmHg 92%
    01:00 +11°C° 0 mm 3 mps 747 mmHg 93%
    02:00 +10°C° 0 mm 3 mps 746 mmHg 93%
    03:00 +10°C° 0 mm 2 mps 746 mmHg 93%
    04:00 +10°C° 0 mm 2 mps 746 mmHg 93%
    05:00 +10°C° 0 mm 3 mps 746 mmHg 92%
    06:00 +10°C° 0 mm 3 mps 746 mmHg 90%
    07:00 +10°C° 0 mm 3 mps 746 mmHg 87%
    08:00 +12°C° 0 mm 4 mps 746 mmHg 78%
    09:00 +13°C° 0 mm 5 mps 746 mmHg 69%
    10:00 +14°C° 0 mm 6 mps 746 mmHg 60%
    11:00 +15°C° 0 mm 6 mps 745 mmHg 59%
    12:00 +15°C° 0 mm 7 mps 745 mmHg 57%
    13:00 +15°C° 0 mm 7 mps 744 mmHg 56%
    14:00 +15°C° 0 mm 7 mps 744 mmHg 57%
    15:00 +14°C° 0 mm 7 mps 743 mmHg 58%
    16:00 +13°C° 0 mm 8 mps 743 mmHg 58%
    17:00 +12°C° 0.2 mm 8 mps 743 mmHg 65%
    18:00 +11°C° 0.2 mm 8 mps 743 mmHg 71%
    19:00 +10°C° 0.2 mm 8 mps 743 mmHg 77%
    20:00 +10°C° 0.2 mm 7 mps 744 mmHg 77%
    21:00 +9°C° 0.2 mm 7 mps 744 mmHg 76%
    22:00 +8°C° 0.2 mm 7 mps 744 mmHg 76%
    23:00 +6°C° 0 mm 7 mps 745 mmHg 77%

    Tomorrow, 18 September, Wednesday

    Time Temperature Precipitation Wind Pressure Humidity
    00:00 +6°C° 0 mm 8 mps 745 mmHg 77%
    01:00 +5°C° 0 mm 8 mps 746 mmHg 78%
    02:00 +5°C° 0 mm 8 mps 746 mmHg 78%
    03:00 +5°C° 0 mm 8 mps 746 mmHg 79%
    04:00 +5°C° 0 mm 8 mps 746 mmHg 79%
    05:00 +5°C° 0 mm 8 mps 747 mmHg 78%
    06:00 +6°C° 0 mm 8 mps 748 mmHg 77%
    07:00 +6°C° 0 mm 8 mps 749 mmHg 76%
    08:00 +7°C° 0 mm 8 mps 749 mmHg 71%
    09:00 +10°C° 0 mm 7 mps 750 mmHg 65%
    10:00 +11°C° 0 mm 7 mps 750 mmHg 59%
    11:00 +12°C° 0 mm 7 mps 750 mmHg 56%
    12:00 +14°C° 0 mm 7 mps 750 mmHg 53%
    13:00 +14°C° 0 mm 7 mps 750 mmHg 50%
    14:00 +14°C° 0 mm 7 mps 750 mmHg 52%
    15:00 +12°C° 0 mm 7 mps 750 mmHg 55%
    16:00 +11°C° 0 mm 6 mps 750 mmHg 58%
    17:00 +11°C° 0 mm 6 mps 750 mmHg 59%
    18:00 +10°C° 0 mm 5 mps 751 mmHg 59%
    19:00 +10°C° 0 mm 4 mps 751 mmHg 60%
    20:00 +10°C° 0 mm 4 mps 751 mmHg 62%
    21:00 +10°C° 0 mm 4 mps 752 mmHg 63%
    22:00 +9°C° 0 mm 3 mps 752 mmHg 65%
    23:00 +9°C° 0 mm 3 mps 752 mmHg 67%

    Day after tomorrow, 19 September, Thursday

    Time Temperature Precipitation Wind Pressure Humidity
    00:00 +9°C° 0 mm 3 mps 752 mmHg 68%
    01:00 +8°C° 0 mm 3 mps 752 mmHg 70%
    02:00 +8°C° 0 mm 3 mps 752 mmHg 70%
    03:00 +7°C° 0 mm 3 mps 752 mmHg 70%
    04:00 +7°C° 0 mm 3 mps 752 mmHg 71%
    05:00 +6°C° 0 mm 4 mps 752 mmHg 70%
    06:00 +7°C° 0 mm 4 mps 753 mmHg 70%
    07:00 +7°C° 0 mm 5 mps 753 mmHg 69%
    08:00 +8°C° 0 mm 5 mps 753 mmHg 68%
    09:00 +9°C° 0 mm 5 mps 753 mmHg 68%
    10:00 +10°C° 0 mm 5 mps 753 mmHg 67%
    11:00 +12°C° 0 mm 5 mps 753 mmHg 66%
    12:00 +12°C° 0 mm 5 mps 753 mmHg 64%
    13:00 +13°C° 0 mm 5 mps 753 mmHg 63%
    14:00 +13°C° 0.1 mm 5 mps 753 mmHg 62%
    15:00 +13°C° 0.1 mm 5 mps 753 mmHg 61%
    16:00 +13°C° 0.1 mm 5 mps 753 mmHg 60%
    17:00 +12°C° 0.1 mm 5 mps 753 mmHg 65%
    18:00 +11°C° 0.1 mm 4 mps 754 mmHg 70%
    19:00 +10°C° 0.1 mm 3 mps 754 mmHg 75%
    20:00 +8°C° 0 mm 4 mps 754 mmHg 76%
    21:00 +8°C° 0 mm 4 mps 754 mmHg 76%
    22:00 +8°C° 0 mm 4 mps 755 mmHg 77%
    23:00 +7°C° 0 mm 4 mps 755 mmHg 79%

    20 September, Friday

    Time Temperature Precipitation Wind Pressure Humidity
    00:00 +7°C° 0 mm 3 mps 755 mmHg 81%
    01:00 +7°C° 0 mm 3 mps 755 mmHg 83%
    02:00 +5°C° 0 mm 3 mps 755 mmHg 85%
    03:00 +5°C° 0 mm 3 mps 755 mmHg 87%
    04:00 +5°C° 0 mm 2 mps 755 mmHg 88%
    05:00 +6°C° 0 mm 2 mps 755 mmHg 86%
    06:00 +5°C° 0 mm 3 mps 755 mmHg 84%
    07:00 +7°C° 0 mm 3 mps 755 mmHg 82%
    08:00 +9°C° 0 mm 3 mps 755 mmHg 75%
    09:00 +10°C° 0 mm 3 mps 755 mmHg 68%
    10:00 +12°C° 0 mm 3 mps 756 mmHg 61%
    11:00 +13°C° 0.1 mm 3 mps 755 mmHg 58%
    12:00 +14°C° 0.1 mm 3 mps 755 mmHg 54%
    13:00 +16°C° 0.1 mm 3 mps 755 mmHg 50%
    14:00 +14°C° 0 mm 3 mps 755 mmHg 50%
    15:00 +14°C° 0 mm 3 mps 755 mmHg 51%
    16:00 +14°C° 0 mm 3 mps 755 mmHg 51%
    17:00 +14°C° 0 mm 2 mps 755 mmHg 56%
    18:00 +12°C° 0 mm 2 mps 755 mmHg 61%
    19:00 +11°C° 0 mm 1 mps 755 mmHg 66%
    20:00 +10°C° 0 mm 1 mps 755 mmHg 68%
    21:00 +9°C° 0 mm 0 mps 756 mmHg 69%
    22:00 +8°C° 0 mm 0 mps 756 mmHg 71%
    23:00 +8°C° 0 mm 0 mps 756 mmHg 72%

    21 September, Saturday

    Time Temperature Precipitation Wind Pressure Humidity
    00:00 +8°C° 0 mm 0 mps 756 mmHg 74%
    01:00 +8°C° 0 mm 1 mps 756 mmHg 75%
    02:00 +8°C° 0 mm 1 mps 756 mmHg 77%
    03:00 +8°C° 0 mm 1 mps 756 mmHg 78%
    04:00 +7°C° 0 mm 1 mps 756 mmHg 79%
    05:00 +8°C° 0 mm 1 mps 756 mmHg 77%
    06:00 +9°C° 0 mm 1 mps 756 mmHg 75%
    07:00 +9°C° 0 mm 1 mps 755 mmHg 73%
    08:00 +10°C° 0 mm 2 mps 756 mmHg 66%
    09:00 +13°C° 0 mm 2 mps 756 mmHg 58%
    10:00 +14°C° 0 mm 3 mps 756 mmHg 51%
    11:00 +16°C° 0 mm 3 mps 756 mmHg 47%
    12:00 +17°C° 0 mm 3 mps 755 mmHg 43%
    13:00 +18°C° 0 mm 3 mps 755 mmHg 40%
    14:00 +18°C° 0 mm 3 mps 754 mmHg 41%
    15:00 +18°C° 0 mm 3 mps 754 mmHg 42%
    16:00 +18°C° 0 mm 3 mps 754 mmHg 43%
    17:00 +16°C° 0 mm 3 mps 754 mmHg 48%
    18:00 +14°C° 0 mm 3 mps 754 mmHg 53%
    19:00 +12°C° 0 mm 3 mps 754 mmHg 58%
    20:00 +11°C° 0 mm 3 mps 754 mmHg 60%
    21:00 +11°C° 0 mm 3 mps 753 mmHg 62%
    22:00 +10°C° 0 mm 3 mps 753 mmHg 64%
    23:00 +10°C° 0 mm 3 mps 753 mmHg 64%

    22 September, Sunday

    Time Temperature Precipitation Wind Pressure Humidity
    00:00 +10°C° 0 mm 3 mps 753 mmHg 65%
    01:00 +9°C° 0 mm 3 mps 753 mmHg 66%
    02:00 +9°C° 0 mm 3 mps 752 mmHg 65%
    03:00 +9°C° 0 mm 3 mps 752 mmHg 64%
    04:00 +8°C° 0 mm 4 mps 752 mmHg 63%
    05:00 +10°C° 0 mm 4 mps 751 mmHg 61%
    06:00 +10°C° 0 mm 4 mps 751 mmHg 59%
    07:00 +10°C° 0 mm 5 mps 751 mmHg 57%
    08:00 +13°C° 0 mm 5 mps 750 mmHg 52%
    09:00 +15°C° 0 mm 6 mps 750 mmHg 46%
    10:00 +17°C° 0 mm 6 mps 750 mmHg 40%
    11:00 +19°C° 0 mm 6 mps 750 mmHg 39%
    12:00 +20°C° 0 mm 6 mps 749 mmHg 38%
    13:00 +21°C° 0 mm 6 mps 748 mmHg 37%
    14:00 +21°C° 0 mm 5 mps 748 mmHg 39%
    15:00 +21°C° 0 mm 4 mps 747 mmHg 40%
    16:00 +21°C° 0 mm 4 mps 747 mmHg 41%
    17:00 +19°C° 0 mm 4 mps 747 mmHg 45%
    18:00 +17°C° 0 mm 3 mps 746 mmHg 49%
    19:00 +14°C° 0 mm 3 mps 746 mmHg 53%
    20:00 +13°C° 0 mm 3 mps 746 mmHg 53%
    21:00 +13°C° 0 mm 3 mps 746 mmHg 52%
    22:00 +12°C° 0 mm 3 mps 746 mmHg 52%
    23:00 +12°C° 0 mm 3 mps 745 mmHg 52%
    Show more